Change the Weather History Date:

Friday, October 4, 2013

  Actual Average (KIRK) Record (KIRK)
Temperature  
Mean Temperature 78 °F 67 °F  
Max Temperature 88 °F 78 °F 91 °F (1938)
Min Temperature 71 °F 55 °F 32 °F (1950)
Degree Days  
Heating Degree Days 0 2  
Month to date heating degree days 12  
Since 1 July heating degree days 19  
Cooling Degree Days 14 3  
Month to date cooling degree days 46  
Year to date cooling degree days 890  
Growing Degree Days 28 (Base 50)    
Moisture  
Dew Point 67 °F    
Average Humidity 71    
Maximum Humidity 87    
Minimum Humidity 53    
Precipitation  
Precipitation 0.00 in 0.16 in 3.91 in (1991)
Month to date precipitation 1.55  
Year to date precipitation 28.96  
Sea Level Pressure  
Sea Level Pressure 29.80 in    
Wind  
Wind Speed 8 mph (SSE)    
Max Wind Speed 14 mph    
Max Gust Speed 24 mph    
T = Trace of Precipitation, MM = Missing Value Source: NWS Daily Summary

Daily Weather History Graph

Daily Weather History Graph

Search for Another Location

Airport or City:

Trip Planner

Search our weather history database for the weather conditions in past years. The results will help you decide how hot, cold, wet, or windy it might be!

Date:

Astronomy

Oct. 04, 2013 Rise Set
Actual Time 7:13 AM CDT 6:51 PM CDT
Civil Twilight 6:46 AM CDT 7:18 PM CDT
Nautical Twilight 6:15 AM CDT 7:49 PM CDT
Astronomical Twilight 5:43 AM CDT 8:21 PM CDT
Moon 6:49 AM CDT (10/4) 6:34 PM CDT (10/4)
Length of Visible Light 12h 31m
Length of Day
11h 37m
Waning Crescent, 0% of the Moon is Illuminated
Oct 4
Waning Crescent
Oct 4
New
Oct 11
First Quarter
Oct 18
Full
Oct 26
Last Quarter

Hourly Weather History & Observations

Time (CDT) Temp. Heat Index Dew Point Humidity Pressure Visibility Wind Dir Wind Speed Gust Speed Precip Events Conditions
12:52 AM 73.9 °F - 66.9 °F 79% 29.84 in - SSE 5.8 mph - N/A   Unknown
1:52 AM 73.0 °F - 66.9 °F 81% 29.83 in - SSE 6.9 mph - N/A   Unknown
2:52 AM 72.0 °F - 66.9 °F 84% 29.83 in - SE 5.8 mph - N/A   Unknown
3:52 AM 71.1 °F - 66.9 °F 87% 29.83 in - SSE 6.9 mph - N/A   Unknown
4:52 AM 71.1 °F - 66.0 °F 84% 29.82 in - SSE 9.2 mph - N/A   Unknown
5:52 AM 71.1 °F - 66.0 °F 84% 29.82 in - SSE 8.1 mph - N/A   Unknown
6:52 AM 71.1 °F - 66.0 °F 84% 29.82 in - SSE 8.1 mph - N/A   Unknown
7:52 AM 71.1 °F - 66.0 °F 84% 29.83 in - SE 8.1 mph - N/A   Unknown
8:52 AM 73.0 °F - 66.9 °F 81% 29.84 in - Variable 6.9 mph - N/A   Unknown
9:52 AM 73.9 °F - 66.9 °F 79% 29.84 in - SSE 5.8 mph - N/A   Unknown
10:52 AM 77.0 °F - 68.0 °F 74% 29.82 in - South 9.2 mph - N/A   Unknown
11:52 AM 79.0 °F - 68.0 °F 69% 29.82 in - South 8.1 mph - N/A   Unknown
12:52 PM 82.0 °F 85.5 °F 69.1 °F 65% 29.81 in - SE 9.2 mph - N/A   Unknown
1:52 PM 86.0 °F 89.4 °F 68.0 °F 55% 29.76 in - South 11.5 mph 23.0 mph N/A   Unknown
2:52 PM 86.0 °F 90.1 °F 69.1 °F 57% 29.75 in - SSE 8.1 mph - N/A   Unknown
3:52 PM 86.0 °F 89.4 °F 68.0 °F 55% 29.75 in - South 12.7 mph 23.0 mph N/A   Unknown
4:52 PM 86.0 °F 88.8 °F 66.9 °F 53% 29.75 in - South 9.2 mph - N/A   Unknown
5:52 PM 84.9 °F 87.1 °F 66.0 °F 53% 29.75 in - SSE 13.8 mph 21.9 mph N/A   Unknown
6:52 PM 82.0 °F 84.1 °F 66.0 °F 58% 29.77 in - SSE 9.2 mph - N/A   Unknown
7:52 PM 81.0 °F 83.0 °F 66.0 °F 60% 29.77 in - SSE 9.2 mph - N/A   Unknown
8:52 PM 80.1 °F 82.1 °F 66.0 °F 62% 29.78 in - SSE 13.8 mph 24.2 mph N/A   Unknown
9:52 PM 79.0 °F - 66.9 °F 66% 29.81 in - South 6.9 mph 17.3 mph N/A   Unknown
10:52 PM 78.1 °F - 66.9 °F 68% 29.82 in - South 8.1 mph - N/A   Unknown
11:52 PM 77.0 °F - 66.9 °F 71% 29.83 in - SW 4.6 mph - N/A   Unknown